Wind_Speed
24 27 24 22 19 17 15 16 15 14 16 19 21 21 22 22 23 23 20 18 18 19 20 20 19 20 19 18 18 19 20 19 19 19 18 16 18 16 18 20 19 16 14
32 29 25 23 19 18 16 17 17 16 15 20 22 22 23 23 24 21 18 19 19 19 20 20 20 19 18 16 16 15 17 17 16 17 19 21 18 17 18 18 18 13 15
33 29 25 21 20 18 17 17 18 16 17 17 23 23 24 25 23 22 18 17 19 19 20 20 19 18 15 14 13 12 13 14 13 14 14 16 17 16 15 13 17 19 17
32 29 26 22 21 19 19 17 17 16 17 17 21 24 24 23 21 19 17 17 18 19 19 19 17 17 15 15 15 14 14 14 14 13 13 13 12 11 12 13 14 14 15
31 29 25 22 22 19 21 18 16 15 16 18 20 20 20 19 17 17 17 17 18 17 17 17 17 15 14 13 13 13 14 15 15 15 15 15 15 12 12 11 11 12 13
30 26 23 22 21 19 19 18 15 15 15 17 19 19 18 18 16 16 16 17 18 17 16 16 16 14 13 14 12 12 13 14 14 14 15 14 14 12 13 12 11 10 9
27 25 22 22 19 18 19 18 16 15 15 15 15 16 16 16 16 16 15 16 17 16 16 16 15 12 12 11 10 9 10 11 12 13 13 13 12 11 11 12 11 11 9
26 24 23 20 19 17 20 18 16 14 15 15 15 16 16 16 15 15 14 14 14 16 16 15 13 11 10 9 8 7 7 7 8 10 11 11 10 9 10 11 11 11 10
24 24 22 19 18 17 17 18 16 14 12 15 17 17 17 15 14 13 12 13 12 13 12 12 11 9 7 6 6 6 5 5 5 6 7 8 8 7 9 9 10 10 10
24 23 21 19 18 17 18 18 15 15 12 12 15 17 16 14 13 12 12 11 11 12 11 10 8 6 5 4 2 3 3 3 3 3 4 5 6 6 7 8 8 9 9
21 23 20 20 17 15 14 18 16 13 13 12 12 13 15 15 13 12 12 11 10 10 9 8 7 5 4 3 2 1 1 1 3 3 1 2 4 3 6 6 7 7 8
18 19 20 19 18 14 13 14 18 16 15 14 11 12 12 12 12 11 10 9 8 8 7 7 6 5 4 3 1 1 1 2 3 3 2 2 3 2 5 7 7 7 7
21 15 16 19 16 13 12 14 18 19 17 16 14 13 12 12 12 11 10 9 8 7 7 6 6 5 4 3 2 2 3 2 3 3 3 3 3 3 4 6 7 8 8
24 26 18 14 10 8 8 14 18 20 19 18 17 14 13 13 13 11 9 8 8 7 6 6 5 4 4 3 2 2 3 4 4 4 4 4 5 6 5 6 6 7 9
23 26 14 6 4 6 9 14 16 19 21 20 18 17 14 14 13 11 10 9 8 8 6 7 5 5 4 4 5 5 5 5 6 7 7 6 7 8 9 9 8 9 10
31 23 17 3 11 9 13 16 18 19 19 21 19 19 16 15 13 12 11 10 9 7 7 7 6 6 6 6 5 5 5 6 7 7 8 10 11 11 11 11 11 11 11
32 16 20 7 20 15 12 17 19 19 19 21 21 20 18 17 15 13 13 12 10 10 9 8 7 6 6 6 6 7 7 7 9 12 11 13 11 12 10 11 12 9 9
24 23 24 28 13 24 18 15 17 17 21 21 22 21 20 19 18 16 15 14 11 11 10 9 8 7 7 7 8 8 8 11 11 13 12 14 17 14 13 13 12 10 11
27 28 31 34 26 27 16 11 17 20 20 23 24 23 23 21 19 19 18 14 13 12 11 9 9 8 6 7 9 11 12 13 13 15 17 18 16 16 14 10 8 8 11
34 28 34 33 29 27 23 11 13 20 25 26 26 25 27 24 22 22 19 16 15 14 12 10 9 8 9 9 10 12 12 15 16 21 21 19 19 18 16 13 11 9 7
34 33 34 29 27 25 30 28 27 35 32 26 23 23 27 29 24 22 20 17 16 15 12 10 9 10 10 10 10 12 13 19 19 17 13 9 8 8 9 10 10 13 14
26 31 32 36 33 35 37 36 28 30 34 34 25 24 25 26 26 24 22 20 19 17 14 11 10 10 9 8 4 4 2 7 3 1 1 4 7 7 3 8 12 13 11
21 31 30 37 39 38 39 32 31 28 27 25 28 24 26 29 23 24 22 19 15 13 15 12 12 14 12 9 8 5 2 2 3 3 2 3 2 1 3 8 11 10 9
17 22 32 36 38 35 35 32 28 30 24 30 29 30 30 29 27 25 18 13 10 17 14 12 10 9 10 8 5 7 10 7 1 4 0 2 3 2 4 7 8 8 8
10 12 14 18 23 28 26 28 33 35 27 15 16 22 26 21 19 17 20 16 12 17 15 8 7 6 6 6 5 4 5 6 9 7 4 3 1 2 5 8 9 9 7
12 14 13 13 15 17 21 22 23 24 20 13 15 17 17 10 10 10 12 12 11 10 7 5 4 5 5 5 6 6 6 4 2 3 2 4 5 5 6 8 10 10 8
Wind_Direction
166 162 159 152 147 143 137 133 130 124 120 127 134 132 129 131 128 126 126 118 112 111 111 112 109 106 105 99 91 85 82 89 88 87 79 82 81 75 72 64 56 59 61
160 159 157 152 148 145 139 139 137 135 117 134 137 136 135 131 128 124 127 118 117 115 114 114 113 111 106 105 100 90 85 87 89 87 84 79 81 72 67 64 62 69 63
156 156 156 153 151 144 139 142 141 141 123 125 138 139 137 134 128 127 122 121 120 119 118 118 118 113 108 101 98 99 87 84 90 88 87 88 83 71 65 62 61 61 58
155 155 157 156 150 146 143 140 144 142 131 120 125 131 132 126 126 129 125 125 123 124 124 124 117 114 110 104 96 95 87 84 87 86 84 83 84 80 71 67 65 59 57
154 157 158 157 151 144 145 146 145 141 136 131 131 128 127 132 132 132 131 128 129 128 127 123 123 117 110 108 109 95 88 85 83 82 80 75 73 69 67 66 68 71 63
156 159 159 157 151 150 149 146 143 137 137 141 145 139 139 138 135 136 136 136 136 133 133 131 129 120 109 111 111 96 87 84 79 77 75 73 69 69 67 66 67 70 68
158 159 158 155 151 153 151 146 147 138 136 139 141 143 143 141 141 144 138 135 137 138 140 139 134 124 114 105 107 100 88 84 77 74 72 70 69 68 66 63 64 62 64
157 157 157 154 150 153 158 155 151 145 139 141 143 145 145 146 143 140 136 137 138 142 145 146 142 134 127 115 102 103 96 84 80 72 66 64 63 64 55 53 54 55 56
159 157 155 150 151 158 167 160 159 153 143 144 148 151 150 153 145 144 140 137 137 143 148 152 153 147 136 124 116 105 88 81 72 61 62 60 60 52 46 44 45 47 45
160 156 152 149 149 158 168 172 158 163 148 146 150 156 158 155 150 150 145 142 143 144 148 151 157 158 156 153 150 143 110 63 30 29 46 48 52 32 31 33 34 34 35
160 159 157 157 154 153 160 173 173 162 168 152 151 152 158 159 159 161 154 153 152 151 152 156 161 168 174 176 189 220 177 19 5 8 2 24 28 5 8 14 18 19 19
163 161 161 163 161 161 166 174 182 180 170 170 172 159 159 159 159 161 160 163 165 167 168 172 176 183 180 174 175 188 227 323 348 344 342 324 333 326 325 349 354 357 356
158 141 151 159 166 177 183 185 184 190 186 184 189 173 170 167 168 169 172 179 183 189 193 196 201 203 200 203 226 251 259 298 321 339 336 316 304 311 301 320 333 343 341
160 145 148 147 158 187 207 196 190 194 193 190 195 188 186 184 184 182 185 196 204 207 215 217 213 197 204 231 259 273 284 301 311 314 315 311 304 297 295 299 309 316 321
172 151 137 107 56 212 234 212 202 201 202 202 202 202 193 193 191 197 205 208 209 214 212 215 224 238 247 262 275 281 292 300 300 305 306 302 294 292 287 285 285 292 296
178 150 108 228 271 287 243 229 223 212 208 210 211 210 207 209 211 215 215 213 214 218 218 224 236 249 257 273 282 291 298 297 299 299 302 301 291 290 283 283 283 284 289
190 134 127 261 263 255 236 233 230 226 214 210 214 214 215 222 227 230 228 229 227 225 227 234 236 241 247 263 278 287 293 297 306 303 301 311 305 295 279 279 280 283 295
164 160 150 177 181 236 234 228 238 238 229 222 215 215 219 226 232 233 233 234 231 230 227 228 231 239 253 266 282 286 287 294 297 303 300 295 299 294 286 285 278 255 262
171 182 182 196 199 210 218 255 248 243 241 232 231 227 227 228 233 233 230 232 224 224 225 224 226 236 259 277 289 295 295 297 297 293 290 287 289 289 285 278 270 265 250
189 194 197 198 195 196 218 259 244 257 245 236 234 232 236 232 234 231 228 224 223 221 217 227 235 246 262 279 285 294 294 301 302 299 294 293 290 287 276 267 256 239 210
196 204 203 203 202 199 187 200 216 232 240 233 243 239 241 240 227 227 226 221 221 216 216 224 243 258 271 288 287 293 300 297 295 294 304 308 309 305 268 246 227 193 187
194 208 206 210 212 216 202 207 215 219 232 236 234 242 240 237 229 228 225 219 214 214 218 233 241 256 260 272 279 299 327 320 299 355 9 7 1 343 252 204 193 188 193
203 208 202 212 218 221 220 215 224 235 232 229 234 233 236 228 226 230 227 224 233 231 226 229 241 258 267 272 277 254 293 237 317 271 314 347 21 309 183 191 195 197 197
200 215 217 219 224 224 223 220 222 226 220 230 237 239 233 215 224 224 225 216 255 268 260 245 237 248 261 269 278 251 246 252 288 321 69 63 58 148 203 216 211 205 201
220 215 217 231 232 234 240 238 232 231 233 221 238 224 218 219 216 213 207 201 242 254 250 250 262 268 266 269 257 260 257 256 243 242 281 299 335 266 230 224 218 216 210
253 242 227 227 235 238 235 241 241 247 241 215 221 231 213 206 188 180 185 195 237 227 212 234 272 285 287 285 281 274 251 232 202 201 230 294 267 253 234 231 222 220 221
Height
779 784 789 792 796 798 799 801 803 804 805 806 808 810 812 814 815 818 821 823 825 825 826 828 830 831 832 833 834 834 834 834 835 834 834 834 835 835 834 834 834 833 833
777 783 789 792 796 799 800 802 804 806 806 807 809 811 813 816 818 821 822 824 826 827 828 829 831 833 834 835 836 836 836 836 836 836 836 836 837 837 837 836 836 835 835
779 784 789 793 796 800 802 804 806 807 808 809 810 813 815 818 820 822 825 826 827 829 830 832 833 834 836 836 837 838 838 838 838 838 838 838 838 839 839 838 838 838 838
780 786 790 794 797 799 803 806 808 809 810 812 814 815 818 820 823 825 826 828 830 831 833 834 835 836 837 838 839 840 840 840 840 840 840 840 840 840 840 840 841 841 840
782 787 791 794 797 800 803 808 809 810 812 813 816 818 820 822 825 827 828 830 831 833 834 835 837 837 838 839 840 841 841 842 842 841 841 842 841 842 841 841 841 841 842
783 788 792 796 799 801 804 808 811 812 814 815 817 820 822 824 826 828 829 830 832 834 836 837 839 839 840 841 842 843 843 843 843 844 844 844 843 844 843 842 842 842 843
785 789 793 797 800 803 805 809 812 813 815 818 819 822 824 826 828 829 830 832 834 836 838 840 841 842 842 843 844 844 845 845 845 845 845 845 845 845 845 844 844 844 844
787 790 795 798 801 805 807 811 813 815 817 819 822 824 826 828 829 830 832 834 836 838 839 841 842 844 844 845 845 846 846 846 846 846 846 847 847 847 846 846 845 845 844
789 792 796 800 804 807 810 812 815 817 819 820 823 825 827 830 831 832 834 836 838 839 841 843 844 845 846 846 846 847 847 847 847 848 848 848 848 848 847 847 846 845 845
791 794 798 801 805 809 811 814 816 818 820 823 824 826 829 831 833 834 835 838 840 841 842 844 845 846 847 847 847 847 847 848 848 848 849 849 849 849 848 848 847 847 846
793 795 799 803 806 809 812 815 818 820 823 824 826 827 830 832 834 836 837 839 841 842 843 844 845 847 847 848 848 848 848 848 848 849 849 849 849 849 849 848 848 848 847
794 797 799 803 806 810 813 815 818 821 823 825 828 828 830 832 834 837 838 840 841 843 844 845 845 846 847 848 849 849 849 849 849 849 849 849 849 849 849 848 848 848 847
793 796 801 804 807 810 812 815 817 821 823 826 828 829 831 833 835 836 839 841 842 843 844 845 845 846 847 848 849 849 849 849 849 848 848 849 849 849 849 849 848 848 847
792 789 799 802 806 811 815 815 816 820 822 824 827 829 830 832 835 836 838 840 842 843 844 845 846 846 847 848 848 849 849 849 848 848 848 848 848 848 848 848 848 847 846
791 788 794 801 806 810 814 817 817 819 821 824 827 829 829 832 834 836 837 839 841 842 843 844 846 846 847 847 847 848 848 848 848 847 847 847 847 846 846 846 846 846 845
786 785 783 795 804 810 811 815 818 819 820 823 825 828 830 832 834 835 836 837 839 841 842 843 844 845 846 847 847 847 847 847 846 846 845 845 844 844 844 844 844 843 843
786 781 774 796 797 805 809 813 817 820 820 821 824 826 828 831 833 834 835 837 838 839 841 842 842 843 844 844 845 845 845 845 844 844 843 843 842 842 841 841 841 842 842
775 778 780 795 796 799 806 811 815 819 820 821 821 824 825 828 830 832 833 835 837 839 839 840 841 842 842 842 843 844 844 843 843 842 841 841 840 838 838 838 838 838 839
773 780 785 789 792 800 806 807 813 816 816 818 820 822 824 825 827 829 830 832 834 836 837 838 839 840 840 840 841 841 841 841 841 840 839 837 836 835 835 835 835 835 836
771 780 786 786 791 797 799 803 809 809 813 813 815 817 819 821 824 826 827 829 831 833 834 836 837 837 837 837 836 837 836 837 837 836 835 834 833 831 831 832 832 833 835
770 776 781 785 791 797 796 806 807 803 804 808 809 811 813 817 820 822 824 826 829 830 832 834 836 837 836 835 834 833 833 833 833 832 832 831 830 827 827 828 829 830 832
770 775 780 783 789 790 789 795 797 799 801 803 801 804 810 814 817 818 820 822 825 826 827 829 831 834 834 833 833 832 831 830 828 828 829 828 829 828 826 827 829 828 829
771 772 773 778 784 788 786 792 794 798 798 800 800 798 803 809 811 812 815 818 821 823 824 826 827 830 831 831 831 833 830 831 830 827 828 828 827 827 828 829 829 830 829
768 771 772 776 778 780 783 786 788 792 794 795 797 799 800 802 806 808 812 816 821 824 823 825 825 826 828 827 829 830 828 828 829 830 828 827 827 827 827 829 830 830 829
767 768 771 773 775 777 779 782 785 789 787 789 794 795 798 799 800 804 810 814 817 821 823 825 825 825 825 825 826 828 828 826 827 830 826 827 826 826 827 827 828 829 828
762 765 767 769 770 772 776 778 779 784 784 786 790 795 799 801 802 806 807 810 816 822 821 822 823 824 824 824 824 825 826 826 825 826 827 826 825 824 825 826 827 827 827